Location: Chillicothe
(39.7950°N, 93.5520°W)
Time: 18:47:02
(UTC-05:00)

Hubble Space Telescope - Visible Passes

Search period start: 18 September 2019 00:00
Search period end: 28 September 2019 00:00
Orbit: 536 x 540 km, 28.5° (Epoch: 18 September)

Date Brightness Start Highest point End Pass type
(mag) Time Alt. Az. Time Alt. Az. Time Alt. Az.
18 Sep 3.4 04:41:23 12° SE 04:41:23 12° SE 04:41:49 10° SE visible
18 Sep 2.9 06:17:24 10° SW 06:19:41 14° S 06:21:58 10° SSE visible
19 Sep 2.9 06:07:02 10° SW 06:09:01 13° SSW 06:10:58 10° SSE visible
20 Sep 3.0 05:57:05 10° SSW 05:58:19 12° SSW 05:59:48 10° S visible
21 Sep 3.1 05:47:20 10° SSW 05:47:37 10° SSW 05:47:55 10° SSW visible
